Location: Killam
(52.7910°N, 111.8608°W)
Time: 12:59:00
(UTC+00:00)

CUBEBUG 2 - Pass Details

Date: 13 March 2026
Orbit: 548 x 627 km, 97.9° (Epoch: 14 April)

Event Time Altitude Azimuth Distance (km) Brightness Sun altitude
Rises 11:18:36 0° 5° (N) 2,878 ? -22.5°
Reaches altitude 10° 11:21:10 10° 350° (N) 1,982 ? -22.1°
Enters shadow 11:23:24 20° 320° (NW) 1,455 ? -21.8°
